owner,sensor,date,latitude,longitude,vertical_datum,wind_speed,wind_to_direction,wind_speed_of_gust,qcFlag 
WAVCIS,ioos:station:WAVCIS:CSI15:1,2009-06-01T00:00:00Z,28.8332,-90.8320,10.0,3.726,93.0,,'11111222,11111222,99999999' 
WAVCIS,ioos:station:WAVCIS:CSI15:1,2009-06-01T01:00:00Z,28.8332,-90.8320,10.0,3.332,102.0,,'11111222,11111222,99999999' 
WAVCIS,ioos:station:WAVCIS:CSI15:1,2009-06-01T02:00:00Z,28.8332,-90.8320,10.0,4.327,89.0,,'11111222,11111222,99999999' 
WAVCIS,ioos:station:WAVCIS:CSI15:1,2009-06-01T03:00:00Z,28.8332,-90.8320,10.0,4.687,93.0,,'11111222,11111222,99999999' 
WAVCIS,ioos:station:WAVCIS:CSI15:1,2009-06-01T04:00:00Z,28.8332,-90.8320,10.0,3.795,93.0,,'11111222,11111222,99999999' 
WAVCIS,ioos:station:WAVCIS:CSI15:1,2009-06-01T05:00:00Z,28.8332,-90.8320,10.0,3.605,111.0,,'11111222,11111222,99999999' 
WAVCIS,ioos:station:WAVCIS:CSI15:1,2009-06-01T06:00:00Z,28.8332,-90.8320,10.0,3.1,125.0,,'11111222,11111222,99999999' 
WAVCIS,ioos:station:WAVCIS:CSI15:1,2009-06-01T07:00:00Z,28.8332,-90.8320,10.0,3.622,121.0,,'11111222,11111222,99999999' 
WAVCIS,ioos:station:WAVCIS:CSI15:1,2009-06-01T08:00:00Z,28.8332,-90.8320,10.0,3.269,114.0,,'11111222,11111222,99999999' 
WAVCIS,ioos:station:WAVCIS:CSI15:1,2009-06-01T09:00:00Z,28.8332,-90.8320,10.0,3.312,111.0,,'11111222,11111222,99999999' 
WAVCIS,ioos:station:WAVCIS:CSI15:1,2009-06-01T10:00:00Z,28.8332,-90.8320,10.0,4.03,120.0,,'11111222,11111222,99999999' 
WAVCIS,ioos:station:WAVCIS:CSI15:1,2009-06-01T11:00:00Z,28.8332,-90.8320,10.0,3.485,123.0,,'11111222,11111222,99999999' 
WAVCIS,ioos:station:WAVCIS:CSI15:1,2009-06-01T12:00:00Z,28.8332,-90.8320,10.0,3.964,129.0,,'11111222,11111222,99999999' 
WAVCIS,ioos:station:WAVCIS:CSI15:1,2009-06-01T13:00:00Z,28.8332,-90.8320,10.0,4.01,104.0,,'11111222,11111222,99999999' 
WAVCIS,ioos:station:WAVCIS:CSI15:1,2009-06-01T14:00:00Z,28.8332,-90.8320,10.0,4.481,107.0,,'11111222,11111222,99999999' 
WAVCIS,ioos:station:WAVCIS:CSI15:1,2009-06-01T15:00:00Z,28.8332,-90.8320,10.0,4.307,102.0,,'11111222,11111222,99999999' 
WAVCIS,ioos:station:WAVCIS:CSI15:1,2009-06-01T16:00:00Z,28.8332,-90.8320,10.0,4.442,97.0,,'11111222,11111222,99999999' 
WAVCIS,ioos:station:WAVCIS:CSI15:1,2009-06-01T17:00:00Z,28.8332,-90.8320,10.0,4.34,97.0,,'11111222,11111222,99999999' 
WAVCIS,ioos:station:WAVCIS:CSI15:1,2009-06-01T18:00:00Z,28.8332,-90.8320,10.0,5.761,94.0,,'11111222,11111222,99999999' 
WAVCIS,ioos:station:WAVCIS:CSI15:1,2009-06-01T19:00:00Z,28.8332,-90.8320,10.0,5.713,101.0,,'11111222,11111222,99999999' 
WAVCIS,ioos:station:WAVCIS:CSI15:1,2009-06-01T20:00:00Z,28.8332,-90.8320,10.0,6.473,101.0,,'11111222,11111222,99999999' 
WAVCIS,ioos:station:WAVCIS:CSI15:1,2009-06-01T21:00:00Z,28.8332,-90.8320,10.0,6.148,100.0,,'11111222,11111222,99999999' 
WAVCIS,ioos:station:WAVCIS:CSI15:1,2009-06-01T22:00:00Z,28.8332,-90.8320,10.0,5.721,103.0,,'11111222,11111222,99999999' 
WAVCIS,ioos:station:WAVCIS:CSI15:1,2009-06-01T23:00:00Z,28.8332,-90.8320,10.0,5.508,105.0,,'11111222,11111222,99999999' 
WAVCIS,ioos:station:WAVCIS:CSI15:1,2009-06-02T00:00:00Z,28.8332,-90.8320,10.0,6.223,111.0,,'11111222,11111222,99999999' 
WAVCIS,ioos:station:WAVCIS:CSI15:1,2009-06-02T01:00:00Z,28.8332,-90.8320,10.0,6.783,95.0,,'11111222,11111222,99999999' 
WAVCIS,ioos:station:WAVCIS:CSI15:1,2009-06-02T02:00:00Z,28.8332,-90.8320,10.0,6.4,105.0,,'11111222,11111222,99999999' 
WAVCIS,ioos:station:WAVCIS:CSI15:1,2009-06-02T03:00:00Z,28.8332,-90.8320,10.0,7.46,97.0,,'11111222,11111222,99999999' 
WAVCIS,ioos:station:WAVCIS:CSI15:1,2009-06-02T04:00:00Z,28.8332,-90.8320,10.0,7.6,108.0,,'11111222,11111222,99999999' 
WAVCIS,ioos:station:WAVCIS:CSI15:1,2009-06-02T05:00:00Z,28.8332,-90.8320,10.0,7.86,107.0,,'11111222,11111222,99999999' 
WAVCIS,ioos:station:WAVCIS:CSI15:1,2009-06-02T06:00:00Z,28.8332,-90.8320,10.0,7.44,113.0,,'11111222,11111222,99999999' 
WAVCIS,ioos:station:WAVCIS:CSI15:1,2009-06-02T07:00:00Z,28.8332,-90.8320,10.0,8.78,130.0,,'11111222,11111222,99999999' 
WAVCIS,ioos:station:WAVCIS:CSI15:1,2009-06-02T08:00:00Z,28.8332,-90.8320,10.0,7.88,129.0,,'11111222,11111222,99999999' 
WAVCIS,ioos:station:WAVCIS:CSI15:1,2009-06-02T09:00:00Z,28.8332,-90.8320,10.0,7.64,142.0,,'11111222,11111222,99999999' 
WAVCIS,ioos:station:WAVCIS:CSI15:1,2009-06-02T10:00:00Z,28.8332,-90.8320,10.0,6.281,130.0,,'11111222,11111222,99999999' 
WAVCIS,ioos:station:WAVCIS:CSI15:1,2009-06-02T11:00:00Z,28.8332,-90.8320,10.0,5.816,120.0,,'11111222,11111222,99999999' 
WAVCIS,ioos:station:WAVCIS:CSI15:1,2009-06-02T12:00:00Z,28.8332,-90.8320,10.0,5.826,103.0,,'11111222,11111222,99999999' 
WAVCIS,ioos:station:WAVCIS:CSI15:1,2009-06-02T13:00:00Z,28.8332,-90.8320,10.0,6.531,115.0,,'11111222,11111222,99999999' 
WAVCIS,ioos:station:WAVCIS:CSI15:1,2009-06-02T14:00:00Z,28.8332,-90.8320,10.0,5.501,97.0,,'11111222,11111222,99999999' 
WAVCIS,ioos:station:WAVCIS:CSI15:1,2009-06-02T15:00:00Z,28.8332,-90.8320,10.0,6.105,112.0,,'11111222,11111222,99999999' 
WAVCIS,ioos:station:WAVCIS:CSI15:1,2009-06-02T16:00:00Z,28.8332,-90.8320,10.0,5.578,120.0,,'11111222,11111222,99999999' 
WAVCIS,ioos:station:WAVCIS:CSI15:1,2009-06-02T17:00:00Z,28.8332,-90.8320,10.0,5.078,124.0,,'11111222,11111222,99999999' 
WAVCIS,ioos:station:WAVCIS:CSI15:1,2009-06-02T18:00:00Z,28.8332,-90.8320,10.0,4.585,139.0,,'11111222,11111222,99999999' 
WAVCIS,ioos:station:WAVCIS:CSI15:1,2009-06-02T19:00:00Z,28.8332,-90.8320,10.0,8.19,77.0,,'11111222,11111222,99999999' 
WAVCIS,ioos:station:WAVCIS:CSI15:1,2009-06-02T20:00:00Z,28.8332,-90.8320,10.0,9.26,15.0,,'11111222,11111222,99999999' 
WAVCIS,ioos:station:WAVCIS:CSI15:1,2009-06-02T21:00:00Z,28.8332,-90.8320,10.0,7.89,328.0,,'11111222,11111222,99999999' 
WAVCIS,ioos:station:WAVCIS:CSI15:1,2009-06-02T22:00:00Z,28.8332,-90.8320,10.0,12.97,65.0,,'11111222,11111222,99999999' 
WAVCIS,ioos:station:WAVCIS:CSI15:1,2009-06-02T23:00:00Z,28.8332,-90.8320,10.0,5.659,84.0,,'11111222,11111222,99999999' 
WAVCIS,ioos:station:WAVCIS:CSI15:1,2009-06-03T00:00:00Z,28.8332,-90.8320,10.0,1.465,289.0,,'11111222,11111222,99999999' 
WAVCIS,ioos:station:WAVCIS:CSI15:1,2009-06-03T01:00:00Z,28.8332,-90.8320,10.0,0.544,245.0,,'11111222,11111222,99999999' 
WAVCIS,ioos:station:WAVCIS:CSI15:1,2009-06-03T02:00:00Z,28.8332,-90.8320,10.0,7.44,107.0,,'11111222,11111222,99999999' 
WAVCIS,ioos:station:WAVCIS:CSI15:1,2009-06-03T03:00:00Z,28.8332,-90.8320,10.0,12.28,87.0,,'11111222,11111222,99999999' 
WAVCIS,ioos:station:WAVCIS:CSI15:1,2009-06-03T04:00:00Z,28.8332,-90.8320,10.0,11.74,76.0,,'11111222,11111222,99999999' 
WAVCIS,ioos:station:WAVCIS:CSI15:1,2009-06-03T05:00:00Z,28.8332,-90.8320,10.0,6.775,69.0,,'11111222,11111222,99999999' 
WAVCIS,ioos:station:WAVCIS:CSI15:1,2009-06-03T06:00:00Z,28.8332,-90.8320,10.0,1.049,13.0,,'11111222,11111222,99999999' 
WAVCIS,ioos:station:WAVCIS:CSI15:1,2009-06-03T07:00:00Z,28.8332,-90.8320,10.0,4.839,130.0,,'11111222,11111222,99999999' 
WAVCIS,ioos:station:WAVCIS:CSI15:1,2009-06-03T08:00:00Z,28.8332,-90.8320,10.0,5.632,135.0,,'11111222,11111222,99999999' 
WAVCIS,ioos:station:WAVCIS:CSI15:1,2009-06-03T09:00:00Z,28.8332,-90.8320,10.0,6.177,171.0,,'11111222,11111222,99999999' 
WAVCIS,ioos:station:WAVCIS:CSI15:1,2009-06-03T10:00:00Z,28.8332,-90.8320,10.0,5.59,178.0,,'11111222,11111222,99999999' 
WAVCIS,ioos:station:WAVCIS:CSI15:1,2009-06-03T11:00:00Z,28.8332,-90.8320,10.0,7.06,194.0,,'11111222,11111222,99999999' 
WAVCIS,ioos:station:WAVCIS:CSI15:1,2009-06-03T12:00:00Z,28.8332,-90.8320,10.0,5.9,213.0,,'11111222,11111222,99999999' 
WAVCIS,ioos:station:WAVCIS:CSI15:1,2009-06-03T13:00:00Z,28.8332,-90.8320,10.0,4.572,207.0,,'11111222,11111222,99999999' 
WAVCIS,ioos:station:WAVCIS:CSI15:1,2009-06-03T14:00:00Z,28.8332,-90.8320,10.0,5.835,234.0,,'11111222,11111222,99999999' 
WAVCIS,ioos:station:WAVCIS:CSI15:1,2009-06-03T15:00:00Z,28.8332,-90.8320,10.0,5.143,245.0,,'11111222,11111222,99999999' 
WAVCIS,ioos:station:WAVCIS:CSI15:1,2009-06-03T16:00:00Z,28.8332,-90.8320,10.0,4.183,242.0,,'11111222,11111222,99999999' 
WAVCIS,ioos:station:WAVCIS:CSI15:1,2009-06-03T17:00:00Z,28.8332,-90.8320,10.0,2.657,283.0,,'11111222,11111222,99999999' 
WAVCIS,ioos:station:WAVCIS:CSI15:1,2009-06-03T18:00:00Z,28.8332,-90.8320,10.0,2.283,315.0,,'11111222,11111222,99999999' 
WAVCIS,ioos:station:WAVCIS:CSI15:1,2009-06-03T19:00:00Z,28.8332,-90.8320,10.0,3.157,14.0,,'11111222,11111222,99999999' 
WAVCIS,ioos:station:WAVCIS:CSI15:1,2009-06-03T20:00:00Z,28.8332,-90.8320,10.0,2.791,63.0,,'11111222,11111222,99999999' 
WAVCIS,ioos:station:WAVCIS:CSI15:1,2009-06-03T21:00:00Z,28.8332,-90.8320,10.0,3.449,122.0,,'11111222,11111222,99999999' 
WAVCIS,ioos:station:WAVCIS:CSI15:1,2009-06-03T22:00:00Z,28.8332,-90.8320,10.0,2.512,177.0,,'11111222,11111222,99999999' 
WAVCIS,ioos:station:WAVCIS:CSI15:1,2009-06-03T23:00:00Z,28.8332,-90.8320,10.0,2.177,218.0,,'11111222,11111222,99999999' 
WAVCIS,ioos:station:WAVCIS:CSI15:1,2009-06-04T00:00:00Z,28.8332,-90.8320,10.0,3.275,241.0,,'11111222,11111222,99999999' 
WAVCIS,ioos:station:WAVCIS:CSI15:1,2009-06-04T01:00:00Z,28.8332,-90.8320,10.0,4.915,245.0,,'11111222,11111222,99999999' 
WAVCIS,ioos:station:WAVCIS:CSI15:1,2009-06-04T02:00:00Z,28.8332,-90.8320,10.0,4.916,241.0,,'11111222,11111222,99999999' 
WAVCIS,ioos:station:WAVCIS:CSI15:1,2009-06-04T03:00:00Z,28.8332,-90.8320,10.0,3.363,250.0,,'11111222,11111222,99999999' 
WAVCIS,ioos:station:WAVCIS:CSI15:1,2009-06-04T04:00:00Z,28.8332,-90.8320,10.0,2.478,237.0,,'11111222,11111222,99999999' 
WAVCIS,ioos:station:WAVCIS:CSI15:1,2009-06-04T05:00:00Z,28.8332,-90.8320,10.0,3.667,231.0,,'11111222,11111222,99999999' 
WAVCIS,ioos:station:WAVCIS:CSI15:1,2009-06-04T06:00:00Z,28.8332,-90.8320,10.0,4.081,206.0,,'11111222,11111222,99999999' 
WAVCIS,ioos:station:WAVCIS:CSI15:1,2009-06-04T07:00:00Z,28.8332,-90.8320,10.0,6.368,198.0,,'11111222,11111222,99999999' 
WAVCIS,ioos:station:WAVCIS:CSI15:1,2009-06-04T08:00:00Z,28.8332,-90.8320,10.0,5.47,203.0,,'11111222,11111222,99999999' 
WAVCIS,ioos:station:WAVCIS:CSI15:1,2009-06-04T09:00:00Z,28.8332,-90.8320,10.0,6.787,209.0,,'11111222,11111222,99999999' 
WAVCIS,ioos:station:WAVCIS:CSI15:1,2009-06-04T10:00:00Z,28.8332,-90.8320,10.0,7.61,213.0,,'11111222,11111222,99999999' 
WAVCIS,ioos:station:WAVCIS:CSI15:1,2009-06-04T11:00:00Z,28.8332,-90.8320,10.0,7.38,217.0,,'11111222,11111222,99999999' 
WAVCIS,ioos:station:WAVCIS:CSI15:1,2009-06-04T12:00:00Z,28.8332,-90.8320,10.0,8.22,309.0,,'11111222,11111222,99999999' 
WAVCIS,ioos:station:WAVCIS:CSI15:1,2009-06-04T13:00:00Z,28.8332,-90.8320,10.0,5.755,197.0,,'11111222,11111222,99999999' 
WAVCIS,ioos:station:WAVCIS:CSI15:1,2009-06-04T14:00:00Z,28.8332,-90.8320,10.0,3.543,225.0,,'11111222,11111222,99999999' 
WAVCIS,ioos:station:WAVCIS:CSI15:1,2009-06-04T15:00:00Z,28.8332,-90.8320,10.0,7.02,244.0,,'11111222,11111222,99999999' 
WAVCIS,ioos:station:WAVCIS:CSI15:1,2009-06-04T16:00:00Z,28.8332,-90.8320,10.0,9.95,216.0,,'11111222,11111222,99999999' 
WAVCIS,ioos:station:WAVCIS:CSI15:1,2009-06-04T17:00:00Z,28.8332,-90.8320,10.0,7.18,214.0,,'11111222,11111222,99999999' 
WAVCIS,ioos:station:WAVCIS:CSI15:1,2009-06-04T18:00:00Z,28.8332,-90.8320,10.0,7.89,208.0,,'11111222,11111222,99999999' 
WAVCIS,ioos:station:WAVCIS:CSI15:1,2009-06-04T19:00:00Z,28.8332,-90.8320,10.0,8.45,222.0,,'11111222,11111222,99999999' 
WAVCIS,ioos:station:WAVCIS:CSI15:1,2009-06-04T20:00:00Z,28.8332,-90.8320,10.0,7.2,221.0,,'11111222,11111222,99999999' 
WAVCIS,ioos:station:WAVCIS:CSI15:1,2009-06-04T21:00:00Z,28.8332,-90.8320,10.0,6.109,215.0,,'11111222,11111222,99999999' 
WAVCIS,ioos:station:WAVCIS:CSI15:1,2009-06-04T22:00:00Z,28.8332,-90.8320,10.0,6.108,228.0,,'11111222,11111222,99999999' 
WAVCIS,ioos:station:WAVCIS:CSI15:1,2009-06-04T23:00:00Z,28.8332,-90.8320,10.0,7.22,237.0,,'11111222,11111222,99999999' 
WAVCIS,ioos:station:WAVCIS:CSI15:1,2009-06-05T00:00:00Z,28.8332,-90.8320,10.0,7.21,252.0,,'11111222,11111222,99999999' 
WAVCIS,ioos:station:WAVCIS:CSI15:1,2009-06-05T01:00:00Z,28.8332,-90.8320,10.0,7.53,250.0,,'11111222,11111222,99999999' 
WAVCIS,ioos:station:WAVCIS:CSI15:1,2009-06-05T02:00:00Z,28.8332,-90.8320,10.0,8.55,258.0,,'11111222,11111222,99999999' 
WAVCIS,ioos:station:WAVCIS:CSI15:1,2009-06-05T03:00:00Z,28.8332,-90.8320,10.0,7.7,269.0,,'11111222,11111222,99999999' 
WAVCIS,ioos:station:WAVCIS:CSI15:1,2009-06-05T04:00:00Z,28.8332,-90.8320,10.0,10.12,316.0,,'11111222,11111222,99999999' 
WAVCIS,ioos:station:WAVCIS:CSI15:1,2009-06-05T05:00:00Z,28.8332,-90.8320,10.0,4.304,304.0,,'11111222,11111222,99999999' 
WAVCIS,ioos:station:WAVCIS:CSI15:1,2009-06-05T06:00:00Z,28.8332,-90.8320,10.0,8.73,324.0,,'11111222,11111222,99999999' 
WAVCIS,ioos:station:WAVCIS:CSI15:1,2009-06-05T07:00:00Z,28.8332,-90.8320,10.0,8.93,336.0,,'11111222,11111222,99999999' 
WAVCIS,ioos:station:WAVCIS:CSI15:1,2009-06-05T08:00:00Z,28.8332,-90.8320,10.0,7.23,334.0,,'11111222,11111222,99999999' 
WAVCIS,ioos:station:WAVCIS:CSI15:1,2009-06-05T09:00:00Z,28.8332,-90.8320,10.0,7.64,329.0,,'11111222,11111222,99999999' 
WAVCIS,ioos:station:WAVCIS:CSI15:1,2009-06-05T10:00:00Z,28.8332,-90.8320,10.0,8.39,337.0,,'11111222,11111222,99999999' 
WAVCIS,ioos:station:WAVCIS:CSI15:1,2009-06-05T11:00:00Z,28.8332,-90.8320,10.0,8.68,339.0,,'11111222,11111222,99999999' 
WAVCIS,ioos:station:WAVCIS:CSI15:1,2009-06-05T12:00:00Z,28.8332,-90.8320,10.0,8.15,354.0,,'11111222,11111222,99999999' 
WAVCIS,ioos:station:WAVCIS:CSI15:1,2009-06-05T13:00:00Z,28.8332,-90.8320,10.0,6.992,358.0,,'11111222,11111222,99999999' 
WAVCIS,ioos:station:WAVCIS:CSI15:1,2009-06-05T14:00:00Z,28.8332,-90.8320,10.0,6.303,336.0,,'11111222,11111222,99999999' 
WAVCIS,ioos:station:WAVCIS:CSI15:1,2009-06-05T15:00:00Z,28.8332,-90.8320,10.0,6.095,344.0,,'11111222,11111222,99999999' 
WAVCIS,ioos:station:WAVCIS:CSI15:1,2009-06-05T16:00:00Z,28.8332,-90.8320,10.0,5.488,331.0,,'11111222,11111222,99999999' 
WAVCIS,ioos:station:WAVCIS:CSI15:1,2009-06-05T17:00:00Z,28.8332,-90.8320,10.0,5.298,324.0,,'11111222,11111222,99999999' 
WAVCIS,ioos:station:WAVCIS:CSI15:1,2009-06-05T18:00:00Z,28.8332,-90.8320,10.0,5.222,322.0,,'11111222,11111222,99999999' 
WAVCIS,ioos:station:WAVCIS:CSI15:1,2009-06-05T19:00:00Z,28.8332,-90.8320,10.0,5.777,322.0,,'11111222,11111222,99999999' 
WAVCIS,ioos:station:WAVCIS:CSI15:1,2009-06-05T20:00:00Z,28.8332,-90.8320,10.0,4.607,329.0,,'11111222,11111222,99999999' 
WAVCIS,ioos:station:WAVCIS:CSI15:1,2009-06-05T21:00:00Z,28.8332,-90.8320,10.0,6.021,306.0,,'11111222,11111222,99999999' 
WAVCIS,ioos:station:WAVCIS:CSI15:1,2009-06-05T22:00:00Z,28.8332,-90.8320,10.0,3.042,302.0,,'11111222,11111222,99999999' 
WAVCIS,ioos:station:WAVCIS:CSI15:1,2009-06-05T23:00:00Z,28.8332,-90.8320,10.0,1.527,317.0,,'11111222,11111222,99999999' 
WAVCIS,ioos:station:WAVCIS:CSI15:1,2009-06-06T00:00:00Z,28.8332,-90.8320,10.0,2.008,267.0,,'11111222,11111222,99999999' 
WAVCIS,ioos:station:WAVCIS:CSI15:1,2009-06-06T01:00:00Z,28.8332,-90.8320,10.0,2.566,256.0,,'11111222,11111222,99999999' 
WAVCIS,ioos:station:WAVCIS:CSI15:1,2009-06-06T02:00:00Z,28.8332,-90.8320,10.0,1.934,255.0,,'11111222,11111222,99999999' 
WAVCIS,ioos:station:WAVCIS:CSI15:1,2009-06-06T03:00:00Z,28.8332,-90.8320,10.0,1.443,288.0,,'11111222,11111222,99999999' 
WAVCIS,ioos:station:WAVCIS:CSI15:1,2009-06-06T04:00:00Z,28.8332,-90.8320,10.0,1.7,341.0,,'11111222,11111222,99999999' 
WAVCIS,ioos:station:WAVCIS:CSI15:1,2009-06-06T05:00:00Z,28.8332,-90.8320,10.0,3.273,20.0,,'11111222,11111222,99999999' 
WAVCIS,ioos:station:WAVCIS:CSI15:1,2009-06-06T06:00:00Z,28.8332,-90.8320,10.0,4.084,32.0,,'11111222,11111222,99999999' 
WAVCIS,ioos:station:WAVCIS:CSI15:1,2009-06-06T07:00:00Z,28.8332,-90.8320,10.0,4.111,25.0,,'11111222,11111222,99999999' 
WAVCIS,ioos:station:WAVCIS:CSI15:1,2009-06-06T08:00:00Z,28.8332,-90.8320,10.0,6.079,29.0,,'11111222,11111222,99999999' 
WAVCIS,ioos:station:WAVCIS:CSI15:1,2009-06-06T09:00:00Z,28.8332,-90.8320,10.0,5.517,24.0,,'11111222,11111222,99999999' 
WAVCIS,ioos:station:WAVCIS:CSI15:1,2009-06-06T10:00:00Z,28.8332,-90.8320,10.0,5.754,29.0,,'11111222,11111222,99999999' 
WAVCIS,ioos:station:WAVCIS:CSI15:1,2009-06-06T11:00:00Z,28.8332,-90.8320,10.0,5.17,31.0,,'11111222,11111222,99999999' 
WAVCIS,ioos:station:WAVCIS:CSI15:1,2009-06-06T12:00:00Z,28.8332,-90.8320,10.0,4.919,47.0,,'11111222,11111222,99999999' 
WAVCIS,ioos:station:WAVCIS:CSI15:1,2009-06-06T13:00:00Z,28.8332,-90.8320,10.0,4.071,41.0,,'11111222,11111222,99999999' 
WAVCIS,ioos:station:WAVCIS:CSI15:1,2009-06-06T14:00:00Z,28.8332,-90.8320,10.0,3.287,44.0,,'11111222,11111222,99999999' 
WAVCIS,ioos:station:WAVCIS:CSI15:1,2009-06-06T15:00:00Z,28.8332,-90.8320,10.0,3.269,35.0,,'11111222,11111222,99999999' 
WAVCIS,ioos:station:WAVCIS:CSI15:1,2009-06-06T16:00:00Z,28.8332,-90.8320,10.0,2.53,38.0,,'11111222,11111222,99999999' 
WAVCIS,ioos:station:WAVCIS:CSI15:1,2009-06-06T17:00:00Z,28.8332,-90.8320,10.0,1.493,38.0,,'11111222,11111222,99999999' 
WAVCIS,ioos:station:WAVCIS:CSI15:1,2009-06-06T18:00:00Z,28.8332,-90.8320,10.0,1.622,19.0,,'11111222,11111222,99999999' 
WAVCIS,ioos:station:WAVCIS:CSI15:1,2009-06-06T19:00:00Z,28.8332,-90.8320,10.0,1.269,87.0,,'11111222,11111222,99999999' 
WAVCIS,ioos:station:WAVCIS:CSI15:1,2009-06-06T20:00:00Z,28.8332,-90.8320,10.0,1.385,78.0,,'11111222,11111222,99999999' 
WAVCIS,ioos:station:WAVCIS:CSI15:1,2009-06-06T21:00:00Z,28.8332,-90.8320,10.0,2.212,90.0,,'11111222,11111222,99999999' 
WAVCIS,ioos:station:WAVCIS:CSI15:1,2009-06-06T22:00:00Z,28.8332,-90.8320,10.0,1.837,145.0,,'11111222,11111222,99999999' 
WAVCIS,ioos:station:WAVCIS:CSI15:1,2009-06-06T23:00:00Z,28.8332,-90.8320,10.0,2.477,153.0,,'11111222,11111222,99999999' 
WAVCIS,ioos:station:WAVCIS:CSI15:1,2009-06-07T00:00:00Z,28.8332,-90.8320,10.0,1.882,167.0,,'11111222,11111222,99999999' 
WAVCIS,ioos:station:WAVCIS:CSI15:1,2009-06-07T01:00:00Z,28.8332,-90.8320,10.0,1.38,153.0,,'11111222,11111222,99999999' 
WAVCIS,ioos:station:WAVCIS:CSI15:1,2009-06-07T02:00:00Z,28.8332,-90.8320,10.0,0.596,131.0,,'11111222,11111222,99999999' 
WAVCIS,ioos:station:WAVCIS:CSI15:1,2009-06-07T03:00:00Z,28.8332,-90.8320,10.0,2.544,112.0,,'11111222,11111222,99999999' 
WAVCIS,ioos:station:WAVCIS:CSI15:1,2009-06-07T04:00:00Z,28.8332,-90.8320,10.0,3.795,118.0,,'11111222,11111222,99999999' 
WAVCIS,ioos:station:WAVCIS:CSI15:1,2009-06-07T05:00:00Z,28.8332,-90.8320,10.0,3.942,105.0,,'11111222,11111222,99999999' 
WAVCIS,ioos:station:WAVCIS:CSI15:1,2009-06-07T06:00:00Z,28.8332,-90.8320,10.0,3.461,118.0,,'11111222,11111222,99999999' 
WAVCIS,ioos:station:WAVCIS:CSI15:1,2009-06-07T07:00:00Z,28.8332,-90.8320,10.0,3.585,133.0,,'11111222,11111222,99999999' 
WAVCIS,ioos:station:WAVCIS:CSI15:1,2009-06-07T08:00:00Z,28.8332,-90.8320,10.0,5.116,138.0,,'11111222,11111222,99999999' 
WAVCIS,ioos:station:WAVCIS:CSI15:1,2009-06-07T09:00:00Z,28.8332,-90.8320,10.0,4.917,118.0,,'11111222,11111222,99999999' 
WAVCIS,ioos:station:WAVCIS:CSI15:1,2009-06-07T10:00:00Z,28.8332,-90.8320,10.0,5.831,119.0,,'11111222,11111222,99999999' 
WAVCIS,ioos:station:WAVCIS:CSI15:1,2009-06-07T11:00:00Z,28.8332,-90.8320,10.0,4.912,120.0,,'11111222,11111222,99999999' 
WAVCIS,ioos:station:WAVCIS:CSI15:1,2009-06-07T12:00:00Z,28.8332,-90.8320,10.0,4.327,121.0,,'11111222,11111222,99999999' 
WAVCIS,ioos:station:WAVCIS:CSI15:1,2009-06-07T13:00:00Z,28.8332,-90.8320,10.0,4.813,124.0,,'11111222,11111222,99999999' 
WAVCIS,ioos:station:WAVCIS:CSI15:1,2009-06-07T14:00:00Z,28.8332,-90.8320,10.0,4.629,122.0,,'11111222,11111222,99999999' 
WAVCIS,ioos:station:WAVCIS:CSI15:1,2009-06-07T15:00:00Z,28.8332,-90.8320,10.0,4.001,115.0,,'11111222,11111222,99999999' 
WAVCIS,ioos:station:WAVCIS:CSI15:1,2009-06-07T16:00:00Z,28.8332,-90.8320,10.0,5.734,113.0,,'11111222,11111222,99999999' 
WAVCIS,ioos:station:WAVCIS:CSI15:1,2009-06-07T17:00:00Z,28.8332,-90.8320,10.0,5.69,114.0,,'11111222,11111222,99999999' 
WAVCIS,ioos:station:WAVCIS:CSI15:1,2009-06-07T18:00:00Z,28.8332,-90.8320,10.0,5.175,115.0,,'11111222,11111222,99999999' 
WAVCIS,ioos:station:WAVCIS:CSI15:1,2009-06-07T19:00:00Z,28.8332,-90.8320,10.0,4.946,123.0,,'11111222,11111222,99999999' 
WAVCIS,ioos:station:WAVCIS:CSI15:1,2009-06-07T20:00:00Z,28.8332,-90.8320,10.0,4.496,122.0,,'11111222,11111222,99999999' 
WAVCIS,ioos:station:WAVCIS:CSI15:1,2009-06-07T21:00:00Z,28.8332,-90.8320,10.0,4.784,118.0,,'11111222,11111222,99999999' 
WAVCIS,ioos:station:WAVCIS:CSI15:1,2009-06-07T22:00:00Z,28.8332,-90.8320,10.0,3.927,115.0,,'11111222,11111222,99999999' 
WAVCIS,ioos:station:WAVCIS:CSI15:1,2009-06-07T23:00:00Z,28.8332,-90.8320,10.0,3.522,108.0,,'11111222,11111222,99999999' 
WAVCIS,ioos:station:WAVCIS:CSI15:1,2009-06-08T00:00:00Z,28.8332,-90.8320,10.0,3.681,113.0,,'11111222,11111222,99999999' 
WAVCIS,ioos:station:WAVCIS:CSI15:1,2009-06-08T01:00:00Z,28.8332,-90.8320,10.0,4.884,113.0,,'11111222,11111222,99999999' 
WAVCIS,ioos:station:WAVCIS:CSI15:1,2009-06-08T02:00:00Z,28.8332,-90.8320,10.0,4.464,108.0,,'11111222,11111222,99999999' 
WAVCIS,ioos:station:WAVCIS:CSI15:1,2009-06-08T03:00:00Z,28.8332,-90.8320,10.0,5.282,103.0,,'11111222,11111222,99999999' 
WAVCIS,ioos:station:WAVCIS:CSI15:1,2009-06-08T04:00:00Z,28.8332,-90.8320,10.0,5.862,101.0,,'11111222,11111222,99999999' 
WAVCIS,ioos:station:WAVCIS:CSI15:1,2009-06-08T05:00:00Z,28.8332,-90.8320,10.0,5.573,106.0,,'11111222,11111222,99999999' 
WAVCIS,ioos:station:WAVCIS:CSI15:1,2009-06-08T06:00:00Z,28.8332,-90.8320,10.0,6.626,111.0,,'11111222,11111222,99999999' 
WAVCIS,ioos:station:WAVCIS:CSI15:1,2009-06-08T07:00:00Z,28.8332,-90.8320,10.0,7.07,112.0,,'11111222,11111222,99999999' 
WAVCIS,ioos:station:WAVCIS:CSI15:1,2009-06-08T08:00:00Z,28.8332,-90.8320,10.0,6.92,123.0,,'11111222,11111222,99999999' 
WAVCIS,ioos:station:WAVCIS:CSI15:1,2009-06-08T09:00:00Z,28.8332,-90.8320,10.0,6.61,119.0,,'11111222,11111222,99999999' 
WAVCIS,ioos:station:WAVCIS:CSI15:1,2009-06-08T10:00:00Z,28.8332,-90.8320,10.0,7.42,128.0,,'11111222,11111222,99999999' 
WAVCIS,ioos:station:WAVCIS:CSI15:1,2009-06-08T11:00:00Z,28.8332,-90.8320,10.0,6.659,125.0,,'11111222,11111222,99999999' 
WAVCIS,ioos:station:WAVCIS:CSI15:1,2009-06-08T12:00:00Z,28.8332,-90.8320,10.0,6.463,126.0,,'11111222,11111222,99999999' 
WAVCIS,ioos:station:WAVCIS:CSI15:1,2009-06-08T13:00:00Z,28.8332,-90.8320,10.0,6.468,127.0,,'11111222,11111222,99999999' 
WAVCIS,ioos:station:WAVCIS:CSI15:1,2009-06-08T14:00:00Z,28.8332,-90.8320,10.0,5.545,135.0,,'11111222,11111222,99999999' 
WAVCIS,ioos:station:WAVCIS:CSI15:1,2009-06-08T15:00:00Z,28.8332,-90.8320,10.0,4.691,129.0,,'11111222,11111222,99999999' 
WAVCIS,ioos:station:WAVCIS:CSI15:1,2009-06-08T16:00:00Z,28.8332,-90.8320,10.0,4.515,122.0,,'11111222,11111222,99999999' 
WAVCIS,ioos:station:WAVCIS:CSI15:1,2009-06-08T17:00:00Z,28.8332,-90.8320,10.0,5.376,129.0,,'11111222,11111222,99999999' 
WAVCIS,ioos:station:WAVCIS:CSI15:1,2009-06-08T18:00:00Z,28.8332,-90.8320,10.0,4.597,125.0,,'11111222,11111222,99999999' 
WAVCIS,ioos:station:WAVCIS:CSI15:1,2009-06-08T19:00:00Z,28.8332,-90.8320,10.0,4.599,126.0,,'11111222,11111222,99999999' 
WAVCIS,ioos:station:WAVCIS:CSI15:1,2009-06-08T20:00:00Z,28.8332,-90.8320,10.0,3.939,122.0,,'11111222,11111222,99999999' 
WAVCIS,ioos:station:WAVCIS:CSI15:1,2009-06-08T21:00:00Z,28.8332,-90.8320,10.0,3.39,119.0,,'11111222,11111222,99999999' 
WAVCIS,ioos:station:WAVCIS:CSI15:1,2009-06-08T22:00:00Z,28.8332,-90.8320,10.0,3.427,113.0,,'11111222,11111222,99999999' 
WAVCIS,ioos:station:WAVCIS:CSI15:1,2009-06-08T23:00:00Z,28.8332,-90.8320,10.0,3.912,103.0,,'11111222,11111222,99999999' 
WAVCIS,ioos:station:WAVCIS:CSI15:1,2009-06-09T00:00:00Z,28.8332,-90.8320,10.0,3.532,101.0,,'11111222,11111222,99999999' 
WAVCIS,ioos:station:WAVCIS:CSI15:1,2009-06-09T01:00:00Z,28.8332,-90.8320,10.0,4.934,112.0,,'11111222,11111222,99999999' 
WAVCIS,ioos:station:WAVCIS:CSI15:1,2009-06-09T02:00:00Z,28.8332,-90.8320,10.0,6.227,129.0,,'11111222,11111222,99999999' 
WAVCIS,ioos:station:WAVCIS:CSI15:1,2009-06-09T03:00:00Z,28.8332,-90.8320,10.0,6.954,133.0,,'11111222,11111222,99999999' 
WAVCIS,ioos:station:WAVCIS:CSI15:1,2009-06-09T04:00:00Z,28.8332,-90.8320,10.0,8.18,139.0,,'11111222,11111222,99999999' 
WAVCIS,ioos:station:WAVCIS:CSI15:1,2009-06-09T05:00:00Z,28.8332,-90.8320,10.0,8.57,138.0,,'11111222,11111222,99999999' 